Stations météo

Publicité
Avignon, France (7563): Température de l'air & dewpoint: 17.03.2019 23:00:00 - 23.03.2019 23:00:00 (CET)Avignon, France (7563): Température de l'air 5cm: 17.03.2019 23:00:00 - 23.03.2019 23:00:00 (CET)Avignon, France (7563): Vitesse du vent & gusts: 17.03.2019 23:00:00 - 23.03.2019 23:00:00 (CET)Avignon, France (7563): Direction du vent: 17.03.2019 23:00:00 - 23.03.2019 23:00:00 (CET)Avignon, France (7563): reduced air pressure: 17.03.2019 23:00:00 - 23.03.2019 23:00:00 (CET)Avignon, France (7563): visibility: 17.03.2019 23:00:00 - 23.03.2019 23:00:00 (CET)Avignon, France (7563): Quantités de précipitations: 17.03.2019 23:00:00 - 23.03.2019 23:00:00 (CET)
Date & Time tt [°C] td [°C] tt 5cm [°C] ff [km/h] ff [knt] fx [km/h] fx [knt] dd ppp [hPa] vv [km] rr [mm]
23.03.2019 23:00:00 8,2 0,7 4,3 5 3 11 6 NW 1023,3 60 0,0
23.03.2019 22:00:00 13,4 1,1 7,1 11 6 22 12 N 1022,8 60 0,0
23.03.2019 21:00:00 15,0 1,1 9,2 14 8 27 15 NNW 1022,8 60 0,0
23.03.2019 20:00:00 16,9 1,7 9,8 14 8 28 15 NW 1022,3 60 0,0
23.03.2019 19:00:00 18,1 2,4 11,9 14 8 29 16 NNW 1021,9 58 0,0
23.03.2019 18:00:00 22,0 2,1 16,8 20 11 32 17 NNW 1021,6 60 0,0
23.03.2019 17:00:00 23,9 1,5 21,0 19 10 32 17 NNW 1021,4 60 0,0
23.03.2019 16:00:00 24,7 1,5 25,2 13 7 26 14 N 1021,8 52 0,0
23.03.2019 15:00:00 24,7 1,5 29,2 13 7 29 16 N 1022,1 60 0,0
23.03.2019 14:00:00 24,0 2,2 29,1 12 7 30 16 NNW 1022,8 49 0,0
23.03.2019 13:00:00 23,1 2,0 27,4 19 10 32 17 NNW 1023,5 20 0,0
23.03.2019 12:00:00 21,4 3,1 25,5 14 8 29 16 N 1024,3 60 0,0
23.03.2019 11:00:00 17,7 3,9 18,3 10 5 20 11 N 1024,9 18 0,0
23.03.2019 10:00:00 14,8 2,3 12,9 4 2 13 7 ENE 1025,7 20 0,0
23.03.2019 09:00:00 11,3 2,6 6,8 7 4 11 6 S 1025,9 28 0,0
23.03.2019 08:00:00 6,6 2,5 -0,7 4 2 7 4 S 1026,0 19 0,0
23.03.2019 07:00:00 0,5 -2,1 -1,2 4 2 10 5 ESE 1025,9 37 0,0
23.03.2019 06:00:00 1,1 -1,0 -1,2 3 2 4 2 E 1026,0 32 0,0
23.03.2019 05:00:00 0,7 -1,9 -0,4 0 0 4 2 N 1026,0 29 0,0
23.03.2019 04:00:00 2,4 -0,5 -0,8 0 0 5 3 N 1026,3 30 0,0
23.03.2019 03:00:00 3,3 0,5 -0,5 2 1 6 3 ESE 1026,5 28 0,0
23.03.2019 02:00:00 4,0 1,0 -0,5 0 0 7 4 N 1026,6 29 0,0
23.03.2019 01:00:00 3,4 -0,4 1,2 3 2 5 3 ESE 1026,7 31 0,0
23.03.2019 00:00:00 5,8 0,5 1,6 2 1 7 4 SE 1026,7 32 0,0
22.03.2019 23:00:00 6,9 1,0 2,4 5 3 11 6 E 1026,7 40 0,0
22.03.2019 22:00:00 10,0 0,8 3,6 3 2 6 3 SE 1026,4 40 0,0
22.03.2019 21:00:00 11,4 1,1 4,6 3 1 11 6 SSW 1026,2 47 0,0
22.03.2019 20:00:00 14,3 1,5 7,0 4 2 20 11 SE 1025,7 42 0,0
22.03.2019 19:00:00 17,7 2,4 10,7 13 7 20 11 SW 1025,4 33 0,0
22.03.2019 18:00:00 22,2 1,8 15,5 4 2 12 6 NNW 1025,1 49 0,0
22.03.2019 17:00:00 23,5 -0,8 21,6 5 3 19 10 N 1025,2 49 0,0
22.03.2019 16:00:00 23,0 0,7 25,4 8 5 17 9 WNW 1025,7 50 0,0
22.03.2019 15:00:00 22,4 1,9 29,3 10 5 24 13 NNW 1026,4 30 0,0
22.03.2019 14:00:00 21,1 2,8 29,7 11 6 22 12 NW 1027,0 22 0,0
22.03.2019 13:00:00 19,6 2,9 27,2 12 6 23 12 NW 1027,8 20 0,0
22.03.2019 12:00:00 17,4 2,9 23,9 7 4 18 10 NW 1028,6 18 0,0
22.03.2019 11:00:00 15,0 3,5 16,6 8 5 17 9 NNW 1029,2 16 0,0
22.03.2019 10:00:00 12,1 2,3 10,3 7 4 16 8 N 1029,6 20 0,0
22.03.2019 09:00:00 9,6 1,7 3,2 4 2 8 5 N 1029,5 31 0,0
22.03.2019 08:00:00 4,8 1,3 -1,3 2 1 4 2 S 1029,5 9 0,0
22.03.2019 07:00:00 0,3 -1,6 -1,7 2 1 6 3 E 1029,0 21 0,0
22.03.2019 06:00:00 0,7 -1,2 -1,4 4 2 7 4 E 1028,7 16 0,0
22.03.2019 05:00:00 1,6 -0,8 -1,3 4 2 6 3 E 1028,7 21 0,0
22.03.2019 04:00:00 1,4 -1,5 -0,5 4 2 5 3 S 1028,7 15 0,0
22.03.2019 03:00:00 2,0 -0,9 -0,8 4 2 6 4 SE 1028,7 20 0,0
22.03.2019 02:00:00 3,1 0,5 -0,7 4 2 6 3 ENE 1028,8 17 0,0
22.03.2019 01:00:00 4,4 0,9 -0,7 3 1 5 3 S 1028,7 17 0,0
22.03.2019 00:00:00 3,8 -0,4 0,5 0 0 6 4 N 1028,8 20 0,0
21.03.2019 23:00:00 4,5 -0,7 0,7 6 3 8 5 SE 1028,6 13 0,0
21.03.2019 22:00:00 6,9 0,3 1,3 4 2 9 5 SSE 1028,2 26 0,0
21.03.2019 21:00:00 8,0 0,0 2,1 8 4 11 6 NW 1027,9 37 0,0
21.03.2019 20:00:00 8,1 -0,2 3,6 3 2 9 5 NNW 1027,5 39 0,0
21.03.2019 19:00:00 13,9 -0,2 6,7 8 5 17 9 NW 1026,7 48 0,0
21.03.2019 18:00:00 17,1 0,3 13,1 11 6 23 12 NW 1026,5 40 0,0
21.03.2019 17:00:00 18,4 -2,6 18,4 14 8 24 13 NW 1026,4 45 0,0
21.03.2019 16:00:00 18,5 -1,4 22,7 8 5 28 15 NNW 1026,7 20 0,0
21.03.2019 15:00:00 18,0 -1,3 28,0 8 4 23 12 WNW 1027,2 29 0,0
21.03.2019 14:00:00 17,3 -0,5 27,1 11 6 21 12 NW 1027,8 27 0,0
21.03.2019 13:00:00 16,3 1,2 25,5 11 6 26 14 N 1028,5 19 0,0
21.03.2019 12:00:00 15,0 0,8 22,4 9 5 22 12 NNW 1028,9 27 0,0
21.03.2019 11:00:00 13,4 -0,3 15,2 13 7 29 16 NNW 1029,4 29 0,0
21.03.2019 10:00:00 11,5 -0,3 9,0 13 7 20 11 N 1029,5 19 0,0
21.03.2019 09:00:00 7,5 -0,2 2,3 5 3 11 6 NNW 1029,8 33 0,0
21.03.2019 08:00:00 3,6 0,5 -2,7 8 4 9 5 S 1029,8 19 0,0
21.03.2019 07:00:00 -1,2 -3,1 -2,9 4 2 9 5 ENE 1029,6 31 0,0
21.03.2019 06:00:00 -0,6 -2,5 -2,9 3 2 9 5 N 1029,4 38 0,0
21.03.2019 05:00:00 -0,2 -2,9 -2,0 3 2 7 4 ESE 1029,1 39 0,0
21.03.2019 04:00:00 0,5 -2,1 -1,6 3 1 4 2 E 1029,0 39 0,0
21.03.2019 03:00:00 0,7 -1,7 -1,3 3 2 10 5 ESE 1029,3 36 0,0
21.03.2019 02:00:00 1,9 -1,4 -0,9 4 2 6 3 E 1029,5 37 0,0
21.03.2019 01:00:00 4,1 0,4 0,0 0 0 10 5 N 1029,5 34 0,0
21.03.2019 00:00:00 5,5 0,7 1,0 5 3 12 7 NNE 1029,3 47 0,0
20.03.2019 23:00:00 7,0 1,1 1,6 9 5 13 7 SE 1029,0 59 0,0
20.03.2019 22:00:00 9,9 -2,1 3,3 3 2 25 13 ESE 1028,6 57 0,0
20.03.2019 21:00:00 10,8 -1,6 6,7 17 9 29 15 N 1027,9 55 0,0
20.03.2019 20:00:00 11,4 -1,4 6,8 16 8 31 17 NNW 1027,5 58 0,0
20.03.2019 19:00:00 12,4 -2,3 8,4 19 10 40 22 NNW 1027,1 60 0,0
20.03.2019 18:00:00 14,5 -2,5 12,0 26 14 40 21 N 1026,5 29 0,0
20.03.2019 17:00:00 15,6 -1,5 16,0 26 14 40 21 N 1026,2 30 0,0
20.03.2019 16:00:00 16,3 -1,3 20,2 20 11 35 19 NNW 1026,4 32 0,0
20.03.2019 15:00:00 16,9 0,5 27,0 14 7 36 19 N 1026,6 43 0,0
20.03.2019 14:00:00 15,8 -1,3 26,7 6 4 20 11 SW 1027,1 48 0,0
20.03.2019 13:00:00 15,2 -0,6 25,7 6 4 26 14 WNW 1027,9 17 0,0
20.03.2019 12:00:00 13,8 -0,7 20,3 10 5 29 16 N 1028,2 20 0,0
20.03.2019 11:00:00 12,3 -0,6 14,2 18 10 31 17 N 1028,4 31 0,0
20.03.2019 10:00:00 10,7 -0,2 9,2 23 12 39 21 NNW 1028,6 28 0,0
20.03.2019 09:00:00 8,8 -1,1 5,8 22 12 42 23 N 1028,5 29 0,0
20.03.2019 08:00:00 7,0 -1,4 2,5 20 11 34 19 N 1027,9 55 0,0
20.03.2019 07:00:00 5,4 -1,8 2,0 16 8 29 15 N 1027,5 50 0,0
20.03.2019 06:00:00 5,3 -2,1 2,3 16 9 29 16 N 1027,1 52 0,0
20.03.2019 05:00:00 5,6 -2,3 2,4 14 7 27 15 N 1027,0 60 0,0
20.03.2019 04:00:00 5,9 -2,0 2,8 16 9 29 15 N 1026,8 60 0,0
20.03.2019 03:00:00 6,5 -1,7 3,6 20 11 30 16 N 1026,8 59 0,0
20.03.2019 02:00:00 7,0 -1,4 4,0 16 9 36 19 N 1027,0 60 0,0
20.03.2019 01:00:00 7,7 -1,3 4,7 22 12 35 19 N 1026,8 60 0,0
20.03.2019 00:00:00 7,8 -0,9 4,8 18 10 39 21 N 1026,5 60 0,0
19.03.2019 23:00:00 9,2 -1,0 6,4 22 12 45 24 N 1025,6 60 0,0
19.03.2019 22:00:00 9,9 -0,9 7,1 28 15 58 31 NNW 1024,8 60 0,0
19.03.2019 21:00:00 10,5 -1,6 7,8 29 16 53 29 NNW 1024,3 60 0,0
19.03.2019 20:00:00 11,2 -1,3 8,5 33 18 61 33 NNW 1023,7 60 0,0
19.03.2019 19:00:00 11,8 -0,7 9,4 38 20 81 44 NNW 1023,1 60 0,0
19.03.2019 18:00:00 13,0 -0,7 11,3 35 19 71 38 N 1021,9 23 0,0
19.03.2019 17:00:00 14,0 -1,6 14,6 37 20 67 36 NNW 1021,5 16 0,0
19.03.2019 16:00:00 14,6 -1,1 17,4 36 19 64 35 N 1021,5 13 0,0
19.03.2019 15:00:00 14,6 -1,5 19,7 40 22 60 32 NNW 1021,6 15 0,0
19.03.2019 14:00:00 14,9 -0,8 20,4 31 17 55 30 NNW 1022,0 15 0,0
19.03.2019 13:00:00 14,0 -2,0 19,9 38 21 59 32 NNW 1022,5 17 0,0
19.03.2019 12:00:00 13,6 -0,5 17,9 31 17 52 28 NNW 1022,6 18 0,0
19.03.2019 11:00:00 12,6 0,3 12,8 29 16 58 31 N 1022,7 19 0,0
19.03.2019 10:00:00 10,7 0,7 9,6 38 20 61 33 N 1022,3 20 0,0
19.03.2019 09:00:00 8,9 1,1 6,6 37 20 61 33 N 1022,0 23 0,0
19.03.2019 08:00:00 7,3 0,7 5,1 31 17 50 27 N 1021,5 36 0,0
19.03.2019 07:00:00 6,7 0,6 5,1 34 18 63 34 N 1020,9 59 0,0
19.03.2019 06:00:00 6,8 0,5 4,8 34 18 59 32 N 1020,2 55 0,0
19.03.2019 05:00:00 7,0 0,2 5,0 32 17 49 27 NNW 1020,0 60 0,0
19.03.2019 04:00:00 7,2 0,4 4,6 30 16 49 27 NNW 1019,8 60 0,0
19.03.2019 03:00:00 6,9 0,1 4,8 23 12 58 32 NNW 1020,0 60 0,0
19.03.2019 02:00:00 7,7 -0,1 5,6 29 16 58 31 NNW 1020,5 60 0,0
19.03.2019 01:00:00 8,3 0,0 6,6 35 19 57 31 NNW 1020,3 60 0,0
19.03.2019 00:00:00 8,8 0,0 7,4 32 17 58 31 NNW 1021,0 60 0,0
18.03.2019 23:00:00 9,2 -0,4 7,5 36 19 58 31 NNW 1021,1 60 0,0
18.03.2019 22:00:00 9,2 -1,0 7,5 28 15 50 27 NNW 1021,1 60 0,0
18.03.2019 21:00:00 9,6 -0,9 7,8 34 19 59 32 NNW 1021,2 60 0,0
18.03.2019 20:00:00 9,8 -0,7 7,3 33 18 58 31 NNW 1021,2 60 0,0
18.03.2019 19:00:00 10,3 -2,1 8,0 37 20 58 32 NNW 1020,7 60 0,0
18.03.2019 18:00:00 11,6 -1,6 10,1 35 19 89 48 N 1020,3 22 0,0
18.03.2019 17:00:00 12,4 -1,2 12,9 39 21 72 39 N 1019,8 16 0,0
18.03.2019 16:00:00 12,9 -0,1 15,6 41 22 72 39 N 1019,8 15 0,0
18.03.2019 15:00:00 12,9 -0,7 16,4 42 23 74 40 N 1019,9 12 0,0
18.03.2019 14:00:00 12,9 -1,1 15,5 41 22 73 40 NNW 1020,4 15 0,0
18.03.2019 13:00:00 12,7 -0,9 15,7 41 22 67 36 NNW 1021,1 18 0,0
18.03.2019 12:00:00 11,4 -1,1 13,1 39 21 67 36 N 1021,6 21 0,0
18.03.2019 11:00:00 11,0 -1,1 10,1 36 19 68 37 N 1021,9 23 0,0
18.03.2019 10:00:00 9,6 -1,8 10,5 45 24 69 38 N 1021,4 23 0,0
18.03.2019 09:00:00 9,4 -0,5 7,5 41 22 71 38 NNW 1020,8 20 0,0
18.03.2019 08:00:00 8,3 -1,3 5,2 30 16 51 28 NNW 1020,3 40 0,0
18.03.2019 07:00:00 7,2 -1,2 4,9 27 15 52 28 NNW 1019,5 60 0,0
18.03.2019 06:00:00 7,2 -2,0 3,0 22 12 39 21 NW 1018,6 60 0,0
18.03.2019 05:00:00 6,9 -2,3 0,8 14 8 21 12 WNW 1018,5 60 0,0
18.03.2019 04:00:00 6,0 -2,6 2,8 8 4 22 12 W 1018,4 60 0,0
18.03.2019 03:00:00 7,6 -2,4 4,6 16 9 31 17 WNW 1018,8 60 0,0
18.03.2019 02:00:00 7,8 -2,5 5,0 18 10 55 30 NNW 1019,2 60 0,0
18.03.2019 01:00:00 9,0 -2,3 6,1 29 16 62 34 NNW 1019,2 60 0,0
18.03.2019 00:00:00 9,5 -2,8 6,4 27 14 52 28 NNW 1019,3 60 0,0
17.03.2019 23:00:00 10,0 -1,7 6,9 29 16 49 26 NW 1018,8 60 0,0

tt = Température de l'air
td = dewpoint
tt 5cm = Température de l'air 5cm
ff = Vitesse du vent
fx = gusts
dd = Direction du vent
ppp = reduced air pressure
vv = visibility
rr = Quantités de précipitations

stations d'obs. à proximité